STARLINK-32417, 61673

Orbit data source: Space-Track

STARLINK-32417, 61673 is a payload satellite owned by SpaceX/Seattle (US) in LEO that was launched on Sat, 26 Oct 2024 UTC via an FALCON 9 launch vehicle from the Air Force Eastern Test Range (AFETR). Payloads include a variety of satellites, spacecraft, and rockets equipped with specific instruments for various scientific and technological missions. These include communications satellites like Starlink; space stations such as the ISS; scientific satellites like the Hubble; Earth observation satellites from companies like Planet Labs, Umbra, and HawkEye 360; GPS; miniature CubeSats for education and research; and military/defense satellites.

Loading next visibility...
STARLINK-32417 details
Identifier
61673, 2024-193N
Orbit
LEO
Last TLE update13 hours ago
Origin
Flag of USSpaceX/Seattle (US)
ManufacturerSpaceX/Seattle
MissionOperational spacecraft
Bus & MotorSTARLINK V2M, Unknown motor
Mass730 kg wet, ~700 kg dry
Launch date (UTC)
2024-10-26 (2 months ago)
Launch vehicle
FALCON 9
Launch site
Air Force Eastern Test Range (AFETR)
Object type
Payload
Rocket body
Debris
Shape & HBRUnknown
Radar Cross SectionLarge (>1 m²)

Expand to show TLE details & history

TLE from 13 hours ago
0 STARLINK-32417
1 61673U 24193N   24361.34169931 -.00002901  00000-0 -62596-4 0  9990
2 61673  53.1617 329.2209 0001222  98.4679 261.6464 15.39605356  9387
Epoch: 2024-12-26T08:12Z
Definitive object data (Epoch: 2024-12-26T08:12:02.82Z)
Latitude-0.00005°
Longitude110.88663°
Altitude448.3 km
Speed7.644 km/s
True Right ascension21h 56m 53s
True Declination0° 00' 00"
Sunlit
Object was in daylight at TLE epoch
Visualization TLE readout
Latitude6.6912°
Longitude-76.72059°
Altitude447.3 km
Speed7.646 km/s
Apparent Right ascension09h 10m 04s
Apparent Declination-15° 44' 38"
Sunlit
Object is in full shadow
Visualization observer readout
Local Sidereal Time20:47:22
Azimuth346.825° N
Elevation-65.327°
Doppler factor1
Orbital elements
Apogee altitude448.367 km
Perigee altitude446.699 km
Semi-major axis6,825.67 km
Eccentricity0.0001222
Inclination53.1617°
RAAN329.2209°
Arg. of periapsis98.4679°
True anomaly261.63255°
Mean anomaly261.6464°
Eccentric anomaly261.63947°
Mean motion3.8488 °/min
BSTAR-0.000062596
Orbital period93.54 mins
Loading maneuver chart data...
Loading historical data...
Loading historical data...
Loading historical data...
Loading historical data...
Loading historical data...
Loading historical data...
Loading historical data...

STARLINK-32417 Visibility forecast

Observer location: undefined°, undefined

Span
Click to sort rows by Start time (UTC) header in descending order
Start Az.
Max El. time (UTC)
Max El. Az.
Max El.
End time (UTC)
End Az.
5 mins2024-12-26 23:56:23.351Z178.212° S2024-12-26 23:58:23.351Z136.687° SSE21.619°2024-12-27 00:01:23.351Z76.434° E
4 mins2024-12-27 01:34:23.351Z278.714° WNW2024-12-27 01:35:23.351Z310.387° NW30.83°2024-12-27 01:38:23.351Z32.176° NE
5 mins2024-12-27 06:28:23.351Z336.886° NNW2024-12-27 06:30:23.351Z17.167° NNE22.232°2024-12-27 06:33:23.351Z82.258° E
5 mins2024-12-27 08:06:23.351Z285.891° WNW2024-12-27 08:08:23.351Z213.609° SW34.552°2024-12-27 08:11:23.351Z152.915° SSE
|